Weather History for Madison, SD

Change the Weather History Date:

Thursday, February 21, 2013

  Actual Average Record
Temperature  
Mean Temperature 12 °F -  
Max Temperature 19 °F 32 °F 32 °F (2012)
Min Temperature 6 °F 13 °F 6 °F (2013)
Degree Days  
Heating Degree Days 52    
Moisture  
Dew Point 12 °F    
Average Humidity 97    
Maximum Humidity 100    
Minimum Humidity 86    
Precipitation  
Precipitation 0.85 in - - ()
Sea Level Pressure  
Sea Level Pressure 30.12 in    
Wind  
Wind Speed 13 mph (East)    
Max Wind Speed 21 mph    
Max Gust Speed 25 mph    
Visibility 9 miles    
Events Snow    
Averages and records for this station are not official NWS values.
T = Trace of Precipitation, MM = Missing Value Source: NWS Daily Summary

Daily Weather History Graph

Daily Weather History Graph

Search for Another Location

Airport:

Trip Planner

Search our weather history database for the weather conditions in past years. The results will help you decide how hot, cold, wet, or windy it might be!

Date:

Astronomy

Feb. 21, 2013 Rise Set
Actual Time 7:17 AM CST 6:06 PM CST
Civil Twilight 6:48 AM CST 6:35 PM CST
Nautical Twilight 6:15 AM CST 7:09 PM CST
Astronomical Twilight 5:41 AM CST 7:42 PM CST
Moon 2:17 PM CST 4:29 AM CST
Length of Visible Light 11h 47m
Length of Day
10h 48m
Waxing Gibbous, 84% of the Moon is Illuminated
Feb 21
Waxing Gibbous
Feb 25
Full
Mar 4
Last Quarter
Mar 11
New
Mar 19
First Quarter

Hourly Weather History & Observations

Time (CST) Temp. Windchill Dew Point Humidity Pressure Visibility Wind Dir Wind Speed Gust Speed Precip Events Conditions
12:00 AM 8.6 °F -7.0 °F 8.6 °F 100% 30.23 in 10.0 mi ESE 12.7 mph - N/A   Overcast
12:20 AM 8.6 °F -7.0 °F 8.6 °F 100% 30.22 in 10.0 mi East 12.7 mph - N/A   Overcast
12:40 AM 8.6 °F -6.3 °F 8.6 °F 100% 30.23 in 10.0 mi ESE 11.5 mph - N/A   Overcast
1:00 AM 8.6 °F -5.5 °F 8.6 °F 100% 30.24 in 10.0 mi ESE 10.4 mph - N/A   Overcast
1:20 AM 8.6 °F -5.5 °F 8.6 °F 100% 30.24 in 10.0 mi SE 10.4 mph - N/A   Overcast
1:40 AM 8.6 °F -3.7 °F 8.6 °F 100% 30.23 in 10.0 mi ESE 8.1 mph - N/A   Overcast
2:00 AM 8.6 °F -3.7 °F 8.6 °F 100% 30.23 in 10.0 mi East 8.1 mph - N/A   Overcast
2:20 AM 8.6 °F -3.7 °F 8.6 °F 100% 30.22 in 10.0 mi East 8.1 mph - N/A   Overcast
2:40 AM 8.6 °F -4.7 °F 8.6 °F 100% 30.20 in 10.0 mi East 9.2 mph - N/A   Overcast
3:00 AM 8.6 °F -3.7 °F 8.6 °F 100% 30.20 in 10.0 mi East 8.1 mph - N/A   Overcast
3:20 AM 8.6 °F -5.5 °F 8.6 °F 100% 30.18 in 10.0 mi East 10.4 mph - N/A   Scattered Clouds
3:40 AM 8.6 °F -5.5 °F 8.6 °F 100% 30.18 in 10.0 mi East 10.4 mph - N/A   Clear
4:00 AM 8.6 °F -6.3 °F 8.6 °F 100% 30.16 in 10.0 mi East 11.5 mph - N/A   Clear
4:20 AM 6.8 °F -8.6 °F 6.8 °F 100% 30.15 in 10.0 mi East 11.5 mph - N/A   Clear
4:35 AM 6.8 °F -7.8 °F 6.8 °F 100% 30.14 in 10.0 mi East 10.4 mph - N/A   Clear
5:00 AM 6.8 °F -5.9 °F 6.8 °F 100% 30.18 in 10.0 mi SE 8.1 mph - N/A   Clear
5:40 AM 8.6 °F -7.0 °F 8.6 °F 100% 30.21 in 10.0 mi SE 12.7 mph - N/A   Overcast
6:00 AM 10.4 °F -4.1 °F 10.4 °F 100% 30.19 in 10.0 mi ESE 11.5 mph - N/A   Overcast
6:20 AM 8.6 °F -8.3 °F 8.6 °F 100% 30.18 in 10.0 mi East 15.0 mph - N/A   Overcast
6:40 AM 8.6 °F -7.0 °F 8.6 °F 100% 30.18 in 10.0 mi East 12.7 mph 16.1 mph N/A   Overcast
7:00 AM 8.6 °F -6.3 °F 8.6 °F 100% 30.17 in 10.0 mi East 11.5 mph 19.6 mph N/A   Mostly Cloudy
7:20 AM 8.6 °F -9.5 °F 8.6 °F 100% 30.17 in 10.0 mi East 17.3 mph - N/A   Overcast
7:40 AM 8.6 °F -8.3 °F 8.6 °F 100% 30.16 in 10.0 mi East 15.0 mph - N/A   Mostly Cloudy
8:00 AM 8.6 °F -8.9 °F 8.6 °F 100% 30.17 in 10.0 mi East 16.1 mph - N/A   Partly Cloudy
8:20 AM 8.6 °F -8.3 °F 8.6 °F 100% 30.17 in 10.0 mi ESE 15.0 mph - N/A   Partly Cloudy
8:40 AM 10.4 °F -4.8 °F 10.4 °F 100% 30.18 in 10.0 mi ESE 12.7 mph - N/A   Mostly Cloudy
8:55 AM 10.4 °F -5.4 °F 10.4 °F 100% 30.18 in 10.0 mi ESE 13.8 mph - N/A   Mostly Cloudy
9:20 AM 12.2 °F -2.5 °F 12.2 °F 100% 30.18 in 10.0 mi ESE 12.7 mph - N/A   Partly Cloudy
9:40 AM 14.0 °F -0.2 °F 14.0 °F 100% 30.18 in 10.0 mi East 12.7 mph - N/A   Clear
10:00 AM 14.0 °F -0.8 °F 14.0 °F 100% 30.19 in 10.0 mi ESE 13.8 mph - N/A   Clear
10:20 AM 14.0 °F -0.8 °F 14.0 °F 100% 30.19 in 10.0 mi East 13.8 mph - N/A   Clear
10:40 AM 15.8 °F 1.4 °F 14.0 °F 93% 30.18 in 10.0 mi East 13.8 mph - N/A   Partly Cloudy
11:00 AM 15.8 °F 0.3 °F 15.8 °F 100% 30.18 in 10.0 mi ESE 16.1 mph - N/A   Scattered Clouds
11:20 AM 15.8 °F -0.2 °F 15.8 °F 100% 30.17 in 10.0 mi East 17.3 mph - N/A   Mostly Cloudy
12:00 PM 17.6 °F 3.2 °F 15.8 °F 93% 30.15 in 10.0 mi East 15.0 mph - N/A   Scattered Clouds
12:20 PM 19.4 °F 7.2 °F 15.8 °F 86% 30.14 in 10.0 mi East 11.5 mph - N/A   Clear
12:40 PM 19.4 °F 6.6 °F 15.8 °F 86% 30.13 in 10.0 mi ESE 12.7 mph - N/A   Clear
1:00 PM 19.4 °F 6.0 °F 15.8 °F 86% 30.12 in 10.0 mi East 13.8 mph - N/A   Mostly Cloudy
1:15 PM 19.4 °F 6.0 °F 15.8 °F 86% 30.11 in 10.0 mi East 13.8 mph - N/A   Mostly Cloudy
1:40 PM 19.4 °F 5.0 °F 15.8 °F 86% 30.10 in 10.0 mi East 16.1 mph - N/A   Partly Cloudy
2:00 PM 19.4 °F 5.5 °F 17.6 °F 93% 30.08 in 10.0 mi ENE 15.0 mph 19.6 mph N/A   Clear
2:20 PM 19.4 °F 4.5 °F 17.6 °F 93% 30.07 in 10.0 mi ENE 17.3 mph - N/A   Clear
2:40 PM 17.6 °F 3.2 °F 15.8 °F 93% 30.07 in 10.0 mi ENE 15.0 mph - N/A   Clear
3:00 PM 17.6 °F 2.7 °F 15.8 °F 93% 30.08 in 10.0 mi ENE 16.1 mph - N/A   Clear
3:20 PM 17.6 °F 1.3 °F 15.8 °F 93% 30.08 in 10.0 mi East 19.6 mph 23.0 mph N/A   Clear
3:40 PM 17.6 °F 1.3 °F 15.8 °F 93% 30.08 in 10.0 mi East 19.6 mph 24.2 mph N/A   Clear
4:00 PM 17.6 °F 2.2 °F 15.8 °F 93% 30.08 in 10.0 mi East 17.3 mph 24.2 mph N/A   Clear
4:20 PM 17.6 °F 1.3 °F 15.8 °F 93% 30.08 in 10.0 mi East 19.6 mph 25.3 mph N/A   Clear
4:40 PM 15.8 °F 0.3 °F 14.0 °F 93% 30.08 in 10.0 mi East 16.1 mph - N/A   Scattered Clouds
4:55 PM 15.8 °F -0.6 °F 14.0 °F 93% 30.07 in 10.0 mi ENE 18.4 mph 24.2 mph N/A   Mostly Cloudy
5:20 PM 15.8 °F -0.2 °F 14.0 °F 93% 30.05 in 10.0 mi ENE 17.3 mph 24.2 mph N/A   Scattered Clouds
5:40 PM 15.8 °F -0.6 °F 14.0 °F 93% 30.05 in 10.0 mi ENE 18.4 mph - N/A   Mostly Cloudy
6:00 PM 15.8 °F 0.3 °F 14.0 °F 93% 30.04 in 10.0 mi ENE 16.1 mph 24.2 mph N/A   Mostly Cloudy
6:20 PM 15.8 °F -1.1 °F 14.0 °F 93% 30.04 in 10.0 mi ENE 19.6 mph - N/A   Overcast
6:40 PM 14.0 °F -2.5 °F 14.0 °F 100% 30.04 in 7.0 mi ENE 17.3 mph - N/A Snow Light Snow
7:00 PM 14.0 °F -3.0 °F 14.0 °F 100% 30.04 in 2.5 mi ENE 18.4 mph 24.2 mph 0.04 in Snow Light Snow
7:20 PM 14.0 °F -3.4 °F 14.0 °F 100% 30.03 in 5.0 mi ENE 19.6 mph - 0.03 in Snow Light Snow
7:40 PM 14.0 °F -3.9 °F 14.0 °F 100% 30.03 in 2.0 mi ENE 20.7 mph - 0.08 in Snow Light Snow
8:00 PM 14.0 °F -2.5 °F 14.0 °F 100% 30.03 in 2.5 mi ENE 17.3 mph - 0.20 in Snow Light Snow
8:20 PM 14.0 °F -3.0 °F 14.0 °F 100% 30.03 in 8.0 mi ENE 18.4 mph 21.9 mph 0.02 in Snow Light Snow
8:35 PM 14.0 °F -2.5 °F 14.0 °F 100% 30.03 in 8.0 mi ENE 17.3 mph - 0.03 in Snow Light Snow
9:00 PM 14.0 °F -3.0 °F 14.0 °F 100% 30.02 in 3.0 mi NE 18.4 mph - 0.05 in Snow Light Snow
9:15 PM 14.0 °F -2.0 °F 14.0 °F 100% 30.02 in 2.0 mi ENE 16.1 mph 23.0 mph 0.03 in Snow Light Snow
9:40 PM 14.0 °F -0.8 °F 14.0 °F 100% 30.02 in 1.5 mi ENE 13.8 mph - 0.12 in Snow Light Snow
10:00 PM 14.0 °F -0.8 °F 14.0 °F 100% 30.01 in 1.5 mi ENE 13.8 mph - 0.20 in Snow Light Snow
10:20 PM 14.0 °F -1.4 °F 14.0 °F 100% 30.00 in 1.5 mi ENE 15.0 mph - 0.12 in Snow Light Snow
10:40 PM 14.0 °F -2.0 °F 14.0 °F 100% 29.99 in 1.8 mi ENE 16.1 mph - 0.19 in Snow Light Snow
11:00 PM 14.0 °F -1.4 °F 14.0 °F 100% 29.98 in 3.0 mi ENE 15.0 mph - 0.25 in Snow Light Snow
11:20 PM 14.0 °F -0.8 °F 14.0 °F 100% 29.98 in 10.0 mi ENE 13.8 mph - 0.01 in Snow Light Snow
11:40 PM 14.0 °F -0.8 °F 14.0 °F 100% 29.97 in 5.0 mi ENE 13.8 mph - 0.03 in Snow Light Snow